This is the latest recevied weather packets stored in our database for station/object JA0BES-13. If no packets are shown the sender has not sent any weather packets the latest 10 day(s).
| Time | Temp. | Humidity | Pressure | Rain* | Wind** | Luminosity | Snow |
|---|---|---|---|---|---|---|---|
| 1777761787 | 13.33° C | 97% | 1011.1 hPa | 0 mm | - | - | - |
| 1777761187 | 12.78° C | 96% | 1011.2 hPa | 0 mm | - | - | - |
| 1777760586 | 12.78° C | 96% | 1011.6 hPa | 0 mm | - | - | - |
| 1777759986 | 12.78° C | 96% | 1011.5 hPa | 0 mm | - | - | - |
| 1777759386 | 12.22° C | 97% | 1011.4 hPa | 0 mm | - | - | - |
| 1777758786 | 12.22° C | 97% | 1011.4 hPa | 0 mm | - | - | - |
| 1777758185 | 12.22° C | 97% | 1011.5 hPa | 0 mm | - | - | - |
| 1777757585 | 12.22° C | 97% | 1011.3 hPa | 0 mm | - | - | - |
| 1777756984 | 12.22° C | 97% | 1011.2 hPa | 0 mm | - | - | - |
| 1777756384 | 11.67° C | 98% | 1011.2 hPa | 0 mm | - | - | - |
| 1777755784 | 11.67° C | 98% | 1011.2 hPa | 0 mm | - | - | - |
| 1777726967 | 14.44° C | 79% | 1011.5 hPa | 3.3 mm | - | - | - |
| 1777726367 | 14.44° C | 78% | 1011.4 hPa | 3.3 mm | - | - | - |
| 1777725766 | 15° C | 77% | 1011.4 hPa | 3.3 mm | - | - | - |
| 1777725166 | 15° C | 76% | 1011.3 hPa | 3.3 mm | - | - | - |
| 1777724565 | 15.56° C | 75% | 1011.3 hPa | 3.3 mm | - | - | - |
| 1777723965 | 15.56° C | 74% | 1011.4 hPa | 3.3 mm | - | - | - |
| 1777723365 | 15.56° C | 74% | 1011.3 hPa | 3.3 mm | - | - | - |
| 1777722764 | 16.11° C | 73% | 1011.1 hPa | 3.3 mm | - | - | - |
| 1777722164 | 16.11° C | 73% | 1011 hPa | 3.3 mm | - | - | - |
| 1777721564 | 16.11° C | 71% | 1010.7 hPa | 3.3 mm | - | - | - |
| 1777720963 | 16.67° C | 71% | 1010.5 hPa | 3.3 mm | - | - | - |
| 1777720363 | 16.67° C | 70% | 1010.4 hPa | 3.3 mm | - | - | - |
| 1777719763 | 16.67° C | 70% | 1010.2 hPa | 3.3 mm | - | - | - |
| 1777719162 | 17.22° C | 69% | 1010.2 hPa | 3.3 mm | - | - | - |
* Rain since midnight (hover to see other rain measurements)
** Current wind speed in m/s (hover to see current wind gust speed)